Meteo Giornale » Osservazioni meteo Stati Uniti (USA) » Minneapolis Flying Cloud
ore: 13:53 - Osservazioni Meteo Minneapolis Flying Cloud
Lat. 44° 49' N Lon. 93° 28' W Alt. 287 metri s.l.m.
30 °C
Sereno
Temp. 24 Ore
22 °C
31 °C
Nord/NOvest
7.4 Km/h
Dew point 17 °C
Umidità 45 %
Visibilità 10 Km
Il sole sorge alle ore 06:35
Il sole tramonta alle ore 19:52
| Data e Ora | Cielo e Fenomeni | T °C | DP °C | Um. % | Pres. hPa | Vis. km | Vento km/h | |
|---|---|---|---|---|---|---|---|---|
| Oggi h: 13:53 | Sereno | 30 | 17 | 45 | 1010 | 10 | N/NO 7.4 | |
| Oggi h: 12:53 | Sereno | 29 | 20 | 58 | 1010 | 10 | N/NO 9.3 | |
| Oggi h: 11:53 | Sereno | 28 | 22 | 69 | 1011 | 10 | NO 13 | |
| Oggi h: 10:53 | Sereno | 27 | 22 | 74 | 1010 | 14 | N/NO 9.3 | |
| Oggi h: 09:53 | Sereno | 26 | 22 | 78 | 1010 | 14 | O/NO 11.1 | |
| Oggi h: 08:53 | Sereno | 24 | 22 | 88 | 1009 | 13 | O 7.4 | |
| Oggi h: 08:25 | Sereno | 23 | 22 | 94 | 1009 | 11 | O/SO 7.4 | |
| Oggi h: 07:53 | Foschia | 22 | 21 | 94 | 1008 | 6 | O/SO 7.4 | |
| Oggi h: 07:34 | Foschia | 22 | 21 | 94 | 1008 | 6 | SO 9.3 | |
| Oggi h: 06:53 | Foschia | 22 | 21 | 94 | 1008 | 6 | O/SO 9.3 | |
| Oggi h: 05:53 | Foschia | 22 | 21 | 94 | 1007 | 10 | N 0 | |
| Oggi h: 04:53 | Sereno | 22 | 21 | 94 | 1007 | 11 | S/SO 9.3 | |
| Oggi h: 03:53 | Sereno | 22 | 21 | 94 | 1007 | 13 | S/SO 9.3 | |
| Oggi h: 02:53 | Sereno | 23 | 21 | 88 | 1007 | 13 | S 13 | |
| Oggi h: 01:53 | Sereno | 23 | 21 | 88 | 1007 | 10 | S 13 | |
| Oggi h: 00:53 | Sereno | 23 | 21 | 88 | 1008 | 10 | S 14.8 | |
| Ieri h: 23:53 | Sereno | 23 | 21 | 88 | 1008 | 10 | S/SE 11.1 | |
| Ieri h: 22:53 | Sereno | 24 | 21 | 83 | 1008 | 10 | S 14.8 | |
| Ieri h: 21:53 | Sereno | 24 | 21 | 83 | 1008 | 10 | S/SE 20.3 | |
| Ieri h: 20:53 | Sereno | 26 | 21 | 73 | 1008 | 10 | S/SE 20.3 | |
| Ieri h: 19:53 | Sereno | 27 | 20 | 65 | 1007 | 10 | S/SE 20.3 | |
| Ieri h: 18:53 | Sereno | 29 | 21 | 62 | 1007 | 10 | S/SE 20.3 | |
| Ieri h: 17:53 | Molto Nuvoloso | 31 | 22 | 58 | 1007 | 10 | S/SE 24 | |
| Ieri h: 16:53 | Sereno | 29 | 22 | 66 | 1007 | 10 | E 16.7 | |
| Ieri h: 15:53 | Sereno | 29 | 22 | 66 | 1007 | 10 | E/SE 22.2 | |
| Ieri h: 14:53 | Nuvoloso | 28 | 22 | 69 | 1008 | 10 | E 16.7 | |



